Regional Weather Roundup
Issued by NWS

Home | Current Version | Previous Version | Graphics & Text | Print | Product List | Glossary On
Versions: 1 2 3 4 5 6 7 8 9 10 11 12 13 14 15 16 17 18 19 20 21 22 23 24 25 26 27 28 29 30 31 32 33 34 35 36 37 38 39 40 41 42 43 44 45 46 47 48 49 50
000
ASUS43 KLMK 290302
RWRKY
KENTUCKY REGIONAL WEATHER ROUNDUP
NATIONAL WEATHER SERVICE LOUISVILLE KY
1100 PM EDT THU AUG 28 2014

NOTE "FAIR" INDICATES FEW OR NO CLOUDS BELOW 12,000 FEET
WITH NO SIGNIFICANT WEATHER AND/OR OBSTRUCTIONS TO VISIBILITY.

KYZ001>023-026-027-061>063-070>075-290400-
WESTERN AND SOUTH CENTRAL KENTUCKY

CITY           SKY/WX    TMP DP  RH WIND       PRES   REMARKS
PADUCAH        MOCLDY    74  71  91 CALM      29.99F FOG
HENDERSON      CLOUDY    73  70  88 NE5       30.01F
OWENSBORO      CLOUDY    78  72  82 NE5       30.02F
HOPKINSVILLE   CLOUDY    75  75 100 N2        30.01S
BOWLING GREEN  CLOUDY    74  72  93 CALM      30.02S FOG
GLASGOW        MOCLDY    73  73 100 CALM      30.03S FOG
$$

KYZ024-025-028>034-038-045-046-053-290400-
NORTH CENTRAL KENTUCKY

CITY           SKY/WX    TMP DP  RH WIND       PRES   REMARKS
LOUISVILLE/SDF PTCLDY    81  70  69 E5        30.03F
LOUISVILLE/LOU PTCLDY    81  70  69 CALM      30.04F
FORT KNOX      MOCLDY    78  71  78 E5        30.03S
$$

KYZ035>037-039>044-047>052-055>060-089>105-290400-
NORTHEAST KENTUCKY

CITY           SKY/WX    TMP DP  RH WIND       PRES   REMARKS
LEXINGTON      CLEAR     76  68  76 E7        30.07S
COVINGTON      PTCLDY    74  60  61 E10       30.09R
FRANKFORT      CLEAR     76  68  76 E6        30.06S
$$

KYZ054-064>069-076>088-106>120-290400-
SOUTHEAST KENTUCKY

CITY           SKY/WX    TMP DP  RH WIND       PRES   REMARKS
JACKSON        CLEAR     73  65  75 CALM      30.11R
LONDON         CLEAR     75  69  81 NE3       30.08S
SOMERSET       CLEAR     77  68  73 NE5       30.07S
MIDDLESBORO    CLEAR     73  70  91 CALM      30.08S
MONTICELLO     PTCLDY    74  73  96 CALM      30.08R
$$



USA.gov is the U.S. government's official web portal to all federal, state and local government web resources and services.